Temp
62 62 61 62 61 61 61 61 61 61 62 62 61 61 61 61 61 61 62 63 62 62 62 62 62 61 54 45 46 59 64 59 59 58 54 51 47 45 41 43 45 42 44 49 49 48 40
62 61 61 61 61 61 61 61 60 61 61 61 61 61 60 61 61 61 61 63 63 62 62 63 63 61 49 37 57 57 54 55 55 55 52 51 49 49 46 43 42 48 46 44 47 45 40
61 61 61 61 61 60 60 60 60 60 61 61 60 60 60 60 60 61 62 62 62 62 62 62 62 57 49 43 56 54 54 52 53 52 51 53 53 50 47 42 47 45 40 40 40 41 37
61 60 60 60 60 60 60 60 60 60 60 60 60 59 59 59 60 60 61 61 61 61 62 62 61 51 42 56 55 55 53 51 53 55 54 55 54 49 44 44 41 36 36 28 37 39 39
60 60 60 60 60 60 60 60 59 60 60 59 59 59 59 59 59 59 60 62 62 62 62 62 52 46 39 58 49 51 50 47 49 52 53 57 48 38 38 32 27 28 21 26 30 36 36
60 60 59 59 59 59 60 59 59 59 59 59 58 58 58 59 59 58 60 61 62 58 56 58 54 43 46 44 48 50 50 50 46 46 44 41 34 29 29 25 17 18 19 23 23 31 29
60 59 59 58 59 59 59 59 59 59 59 58 58 58 58 58 57 57 54 50 46 42 43 39 39 41 44 48 51 47 47 46 44 39 31 33 27 22 23 27 22 19 16 16 24 32 24
59 59 59 58 58 58 58 58 58 58 58 57 57 57 58 58 57 55 47 41 41 44 37 45 44 45 47 46 39 44 48 38 35 30 31 28 23 27 32 30 28 23 14 16 27 31 28
59 59 58 58 58 58 58 58 58 58 57 57 57 57 57 58 56 47 41 41 46 44 36 40 44 42 42 45 37 37 41 37 31 29 26 23 26 34 31 26 25 20 15 17 18 26 25
59 59 58 58 57 57 57 57 57 57 57 56 56 57 57 57 49 41 39 46 46 45 31 34 37 41 43 42 35 43 42 36 31 27 27 25 30 30 27 26 24 20 25 25 24 18 11
59 59 58 57 57 56 57 57 57 57 56 55 55 56 55 55 42 39 43 45 45 43 22 34 36 46 42 36 35 37 42 38 28 27 26 24 25 27 24 26 28 22 28 25 24 18 13
59 59 58 57 56 56 56 56 56 56 56 55 55 56 56 47 42 42 45 44 44 33 20 30 35 33 33 33 33 35 33 36 33 29 29 25 29 28 27 30 29 29 23 22 18 13 -1
59 59 58 57 56 56 55 56 56 56 56 55 55 56 51 48 40 44 44 41 31 25 32 29 29 32 29 28 29 29 26 21 19 17 16 24 25 28 30 23 27 22 14 6 5 3 4
59 58 58 57 56 55 55 55 56 56 55 55 54 54 50 48 43 43 40 34 26 29 26 31 30 30 25 26 25 25 23 18 23 18 14 12 13 23 28 23 19 20 17 3 -9 -2 4
59 58 58 57 56 55 55 55 55 55 55 54 53 42 41 42 44 42 35 26 27 27 31 28 28 22 21 26 23 20 15 17 18 17 8 7 13 24 28 25 24 19 13 16 1 6 4
58 58 57 57 56 55 55 55 55 55 55 54 43 40 41 43 43 39 32 32 26 31 31 30 24 23 16 19 18 16 16 19 22 21 18 11 3 21 25 24 24 19 19 7 5 -10 -5
57 57 57 56 55 54 54 54 54 54 54 53 42 37 42 43 43 35 27 26 29 32 32 28 23 20 18 17 17 14 15 20 20 20 19 15 9 13 20 14 12 15 3 3 1 -1 -7
56 57 57 56 55 54 53 53 54 54 53 48 41 35 41 43 36 29 25 29 35 30 30 29 26 24 18 18 14 15 15 17 22 22 13 16 5 3 8 12 15 11 -1 -6 -2 -5 -4
56 57 56 56 54 53 53 53 53 53 52 43 39 37 42 43 31 25 28 29 31 29 29 28 25 27 22 18 8 18 17 24 24 22 15 16 8 -3 5 5 12 6 4 -1 -7 -12 -11
56 56 56 55 54 53 52 52 52 52 52 44 38 34 37 35 32 28 25 26 25 30 28 28 25 25 19 15 16 9 16 23 24 23 28 18 -5 1 -1 3 3 2 6 6 -0 -11 -14
55 56 55 54 53 52 51 52 52 52 52 44 36 33 33 31 30 28 29 27 24 23 27 26 23 21 13 3 12 13 16 17 20 22 14 10 -0 1 -1 -2 2 1 5 3 -0 -5 -6
55 55 55 54 53 52 51 51 51 51 52 41 33 31 29 27 29 27 25 22 24 24 22 22 17 19 15 8 12 7 8 9 9 12 5 -1 -4 -5 -7 -0 1 -5 -0 -1 -0 -4 -7
55 55 55 54 53 51 50 51 51 51 50 38 34 35 35 30 27 25 25 25 26 24 24 24 18 16 14 18 15 12 10 8 6 6 -6 -10 -8 -11 -12 -3 -7 -6 -4 2 -1 -8 -8
55 54 54 53 52 52 50 50 50 51 50 41 37 35 29 26 27 28 27 27 25 24 17 19 21 16 17 20 18 14 8 5 2 -7 2 -10 -12 -17 -15 -14 -16 1 -11 -5 -1 -6 -7
55 54 54 53 52 51 49 49 48 49 50 40 37 35 29 23 28 25 25 21 20 19 18 21 21 21 22 17 7 2 6 4 3 3 -2 -5 -12 -16 -11 -17 -4 -4 -2 -4 -3 1 -1
55 54 54 53 52 50 48 47 47 48 49 37 33 35 32 24 24 29 21 22 15 13 16 17 21 23 22 16 9 2 2 5 -1 1 4 -1 -8 -7 -19 -16 -10 0 -5 -16 -12 -6 -2
55 54 53 53 51 49 48 47 48 47 46 36 30 31 32 23 22 24 20 18 20 16 14 16 16 17 20 10 6 3 0 1 -1 -1 -3 -3 -11 -7 -10 -14 -7 -4 -5 -14 -7 2 -1
55 54 52 52 49 48 48 46 46 47 43 37 30 32 33 21 18 19 22 19 18 19 14 15 14 13 12 7 10 8 -1 -0 -1 1 -0 -0 -5 -8 -14 -18 -6 -3 -3 -0 3 -9 -7
54 52 51 50 48 48 47 45 46 44 42 38 29 32 29 21 16 20 19 19 18 18 17 16 13 13 16 10 8 5 4 -1 1 1 -1 0 3 1 0 1 -10 -1 -4 -6 -13 -2 -5
MSLP
1019.51 1019.49 1019.49 1019.36 1019.14 1019.09 1018.93 1018.84 1018.62 1018.33 1017.96 1017.62 1017.38 1017.04 1016.70 1016.37 1016.00 1015.59 1015.17 1014.72 1014.74 1014.85 1015.00 1015.16 1015.26 1015.30 1015.42 1016.30 1017.07 1016.30 1015.75 1015.24 1014.74 1014.57 1014.82 1015.10 1015.46 1015.90 1016.49 1016.88 1017.04 1017.45 1017.89 1018.18 1018.55 1019.10 1020.76
1019.51 1019.52 1019.54 1019.46 1019.23 1019.08 1018.99 1018.82 1018.65 1018.50 1018.16 1017.84 1017.55 1017.33 1016.98 1016.61 1016.30 1015.91 1015.54 1015.17 1015.09 1015.22 1015.37 1015.40 1015.35 1015.34 1015.76 1017.30 1017.22 1016.53 1016.03 1015.44 1015.25 1015.07 1015.20 1015.31 1015.60 1015.84 1016.62 1017.27 1017.58 1017.98 1018.51 1019.11 1019.54 1020.33 1021.68
1019.69 1019.66 1019.60 1019.51 1019.34 1019.21 1019.19 1018.96 1018.74 1018.45 1018.28 1017.90 1017.71 1017.43 1017.05 1016.77 1016.44 1016.14 1015.83 1015.68 1015.59 1015.59 1015.68 1015.67 1015.51 1015.67 1016.37 1017.73 1017.13 1016.72 1016.10 1015.84 1015.58 1015.47 1015.55 1015.68 1015.74 1016.22 1017.15 1018.05 1018.37 1018.63 1019.39 1020.10 1021.00 1021.61 1022.85
1019.77 1019.71 1019.65 1019.75 1019.62 1019.33 1019.15 1019.18 1018.95 1018.59 1018.26 1018.06 1017.81 1017.58 1017.36 1016.93 1016.63 1016.34 1016.12 1016.00 1015.82 1015.80 1015.75 1015.72 1015.72 1016.04 1017.39 1017.24 1017.05 1016.83 1016.40 1016.15 1015.75 1015.73 1015.95 1016.20 1016.39 1017.31 1018.60 1019.11 1019.88 1020.70 1021.13 1022.06 1022.67 1022.86 1023.59
1019.73 1019.78 1019.71 1019.56 1019.57 1019.60 1019.30 1019.12 1019.01 1018.86 1018.46 1018.18 1017.86 1017.69 1017.45 1017.18 1016.84 1016.60 1016.26 1016.13 1016.06 1015.97 1015.80 1015.77 1016.23 1016.76 1018.21 1017.44 1017.30 1017.42 1017.26 1017.21 1016.76 1016.59 1016.83 1016.89 1017.78 1020.12 1020.32 1021.17 1022.60 1023.42 1023.93 1024.13 1024.18 1024.54 1025.04
1019.68 1019.68 1019.72 1019.80 1019.66 1019.50 1019.53 1019.36 1019.06 1018.97 1018.70 1018.36 1018.02 1017.67 1017.48 1017.25 1017.06 1016.88 1016.65 1016.45 1016.32 1016.18 1016.41 1016.27 1017.11 1017.96 1018.90 1019.25 1018.47 1017.98 1017.62 1017.54 1017.62 1017.55 1018.18 1019.26 1021.06 1022.52 1023.29 1023.40 1025.18 1025.76 1025.89 1025.77 1025.65 1025.73 1026.58
1019.66 1019.61 1019.65 1019.64 1019.64 1019.59 1019.49 1019.33 1019.29 1019.12 1019.09 1018.71 1018.18 1017.79 1017.62 1017.40 1017.18 1016.92 1016.97 1016.94 1017.53 1018.04 1018.51 1019.19 1019.69 1019.77 1019.90 1019.40 1018.87 1018.68 1018.42 1018.25 1018.68 1019.48 1021.13 1022.16 1023.33 1024.86 1025.43 1025.56 1026.13 1026.68 1027.08 1027.10 1026.37 1026.29 1027.41
1019.68 1019.66 1019.59 1019.67 1019.73 1019.60 1019.56 1019.40 1019.16 1019.01 1019.07 1018.72 1018.37 1017.93 1017.62 1017.43 1017.25 1017.29 1017.48 1018.37 1018.88 1019.19 1020.02 1020.07 1020.07 1020.25 1020.25 1020.00 1020.03 1019.83 1019.15 1019.84 1021.04 1022.03 1022.61 1023.74 1024.73 1025.44 1025.66 1026.15 1026.56 1026.94 1027.41 1027.35 1026.77 1026.83 1027.78
1019.52 1019.64 1019.51 1019.52 1019.54 1019.56 1019.57 1019.47 1019.32 1019.20 1018.78 1019.04 1018.61 1018.00 1017.51 1017.49 1017.46 1017.83 1018.91 1019.20 1019.08 1019.08 1019.98 1020.87 1020.71 1020.72 1020.91 1020.83 1021.74 1021.79 1021.49 1021.98 1022.71 1023.36 1023.75 1024.41 1025.60 1025.56 1025.90 1026.52 1026.77 1027.04 1027.59 1027.64 1027.70 1027.37 1027.99
1019.26 1019.43 1019.48 1019.49 1019.49 1019.52 1019.50 1019.43 1019.20 1019.14 1018.89 1018.90 1018.92 1018.27 1017.76 1017.67 1018.16 1018.90 1019.40 1019.51 1019.19 1019.13 1019.96 1021.43 1021.11 1021.14 1021.24 1021.25 1022.32 1022.43 1022.45 1022.74 1023.34 1024.30 1024.67 1025.39 1025.71 1025.71 1026.03 1026.52 1027.08 1027.21 1027.29 1027.54 1027.61 1028.12 1029.29
1019.12 1019.25 1019.22 1019.32 1019.34 1019.45 1019.60 1019.43 1019.21 1019.07 1018.91 1018.42 1018.72 1018.68 1018.17 1017.91 1018.88 1019.15 1019.60 1019.42 1019.38 1019.45 1020.53 1021.64 1021.46 1021.32 1021.89 1022.44 1023.21 1023.37 1023.34 1023.14 1024.29 1024.96 1025.17 1026.17 1026.07 1026.13 1026.44 1026.96 1027.15 1027.52 1027.37 1027.51 1027.91 1028.85 1029.91
1018.77 1019.07 1019.18 1019.20 1019.11 1019.19 1019.30 1019.40 1019.21 1019.14 1018.99 1018.67 1018.34 1018.66 1018.45 1018.72 1019.24 1019.50 1019.39 1019.47 1019.63 1020.41 1020.74 1021.67 1021.88 1022.20 1022.89 1023.59 1024.17 1024.46 1024.47 1024.34 1025.17 1025.64 1026.05 1026.56 1026.35 1026.65 1026.86 1026.86 1027.08 1027.51 1027.61 1027.85 1028.73 1029.93 1031.31
1018.33 1018.68 1018.97 1019.11 1019.02 1018.94 1019.14 1018.95 1019.19 1019.14 1019.01 1018.64 1018.47 1018.34 1018.55 1018.97 1019.71 1019.58 1019.66 1020.21 1020.72 1020.81 1021.67 1022.19 1022.55 1023.03 1023.89 1024.78 1025.43 1025.99 1026.62 1026.77 1027.05 1027.48 1028.04 1027.79 1027.43 1027.51 1027.43 1027.44 1027.54 1028.20 1028.72 1030.01 1030.84 1031.62 1032.39
1017.70 1018.19 1018.59 1018.79 1019.06 1019.07 1019.03 1019.04 1018.80 1019.02 1019.09 1018.78 1018.42 1018.48 1018.95 1019.33 1019.50 1019.60 1020.13 1020.77 1021.24 1020.93 1021.67 1022.52 1023.07 1023.90 1024.96 1025.80 1026.64 1027.17 1027.71 1028.34 1028.36 1028.65 1029.41 1029.30 1028.78 1028.44 1028.34 1028.58 1029.05 1029.49 1030.32 1032.51 1033.55 1033.85 1033.96
1017.25 1017.66 1018.28 1018.62 1018.75 1019.05 1019.02 1019.08 1018.88 1018.77 1019.06 1018.88 1018.55 1018.98 1019.33 1019.73 1019.71 1020.02 1020.76 1021.36 1020.69 1021.08 1021.75 1022.68 1023.82 1024.75 1025.91 1026.51 1027.16 1028.10 1028.89 1029.26 1029.48 1029.66 1030.19 1030.67 1030.23 1029.42 1029.20 1029.33 1029.90 1030.59 1031.92 1033.44 1034.82 1035.36 1036.12
1016.76 1017.32 1017.68 1018.31 1018.59 1018.79 1018.74 1018.77 1018.82 1018.83 1018.99 1018.81 1019.06 1019.37 1019.79 1019.68 1019.78 1020.41 1020.90 1021.31 1021.56 1021.72 1022.35 1023.01 1023.71 1024.89 1026.11 1027.02 1027.72 1028.52 1029.34 1029.72 1029.84 1030.14 1030.60 1031.56 1031.60 1030.68 1030.37 1030.47 1031.13 1031.75 1033.56 1035.02 1036.57 1038.29 1038.51
1016.23 1016.78 1017.37 1017.83 1018.17 1018.29 1018.71 1018.25 1018.80 1018.75 1018.80 1018.84 1019.17 1019.71 1019.84 1019.88 1020.12 1020.66 1021.30 1021.62 1022.01 1022.13 1022.57 1023.65 1024.33 1025.36 1026.37 1027.24 1028.08 1029.02 1029.57 1030.11 1030.17 1030.68 1031.21 1031.99 1032.67 1032.39 1031.77 1032.67 1033.17 1033.88 1035.34 1037.09 1038.55 1039.83 1040.63
1015.77 1016.33 1016.91 1017.31 1017.69 1018.05 1018.41 1018.19 1018.81 1018.67 1018.64 1018.68 1019.30 1020.15 1020.10 1020.03 1020.73 1021.77 1021.89 1021.97 1022.17 1022.75 1023.05 1023.78 1024.61 1025.63 1026.74 1027.68 1028.59 1029.37 1029.73 1029.92 1030.38 1030.92 1031.87 1032.65 1033.76 1034.37 1034.50 1034.80 1034.86 1035.62 1037.31 1038.65 1040.03 1041.38 1041.80
1014.96 1015.67 1016.39 1016.77 1017.34 1018.03 1018.14 1017.99 1018.38 1018.42 1018.54 1018.77 1019.36 1019.84 1019.92 1020.05 1020.85 1021.97 1022.43 1022.63 1022.67 1022.93 1023.37 1024.30 1025.18 1025.80 1027.01 1028.15 1029.29 1029.68 1030.06 1030.48 1030.62 1031.32 1032.07 1033.03 1034.77 1035.94 1036.20 1036.48 1036.06 1036.82 1038.14 1039.38 1040.91 1041.90 1042.69
1014.09 1015.04 1015.80 1016.25 1016.92 1017.40 1017.97 1017.90 1018.22 1018.15 1018.26 1018.49 1019.79 1020.12 1020.32 1020.59 1021.15 1021.58 1022.44 1022.77 1023.28 1023.35 1023.73 1024.52 1025.76 1026.59 1027.76 1029.01 1029.74 1030.33 1030.73 1031.10 1031.40 1031.96 1032.54 1033.74 1036.09 1036.59 1036.90 1036.72 1036.88 1038.02 1038.61 1039.57 1040.88 1042.77 1042.61
1013.53 1014.36 1015.06 1015.63 1016.45 1017.08 1017.61 1017.86 1017.94 1018.07 1017.95 1018.47 1019.68 1020.23 1020.71 1021.05 1021.46 1021.73 1022.07 1022.56 1023.23 1023.82 1024.25 1025.02 1026.31 1026.96 1028.05 1030.11 1030.60 1030.88 1031.32 1032.11 1032.64 1033.20 1034.47 1035.67 1037.65 1038.20 1038.18 1038.14 1038.11 1038.36 1038.76 1039.67 1040.71 1041.18 1042.14
1012.89 1013.64 1014.48 1015.16 1015.87 1016.54 1017.18 1017.41 1017.72 1017.85 1017.91 1018.55 1019.56 1020.39 1021.15 1021.45 1021.63 1022.08 1022.53 1022.81 1022.88 1023.87 1024.45 1025.53 1026.40 1027.29 1028.47 1029.59 1029.84 1030.83 1031.58 1033.04 1033.50 1035.11 1036.45 1037.99 1039.27 1040.12 1040.14 1039.52 1039.44 1039.39 1039.14 1039.61 1040.45 1041.16 1041.63
1012.55 1012.96 1013.85 1014.57 1015.37 1016.21 1016.81 1017.06 1017.48 1017.62 1017.83 1018.55 1019.98 1020.07 1020.24 1021.33 1021.79 1022.30 1022.06 1022.14 1022.83 1023.71 1025.06 1025.57 1026.44 1028.01 1029.35 1029.83 1030.59 1031.34 1032.29 1033.14 1034.22 1035.91 1038.39 1039.78 1040.65 1042.17 1042.05 1041.22 1040.56 1039.84 1037.97 1038.57 1039.27 1039.87 1040.52
1012.20 1012.58 1013.36 1014.01 1014.94 1015.87 1016.50 1016.88 1017.28 1017.32 1017.62 1018.17 1019.31 1019.68 1020.68 1020.83 1021.35 1021.81 1022.04 1022.62 1023.41 1024.22 1025.16 1026.44 1027.09 1028.25 1030.29 1030.42 1031.07 1032.08 1033.28 1034.52 1035.53 1037.26 1038.10 1040.36 1041.78 1042.62 1043.34 1042.75 1040.92 1037.42 1037.29 1037.55 1038.12 1038.40 1038.71
1011.55 1012.10 1012.98 1013.44 1014.51 1015.36 1016.38 1016.66 1017.02 1017.27 1017.39 1018.11 1019.10 1019.65 1020.03 1020.64 1021.19 1022.05 1022.70 1023.53 1024.48 1025.35 1026.20 1026.99 1027.87 1028.39 1029.44 1030.32 1031.98 1033.46 1034.65 1035.50 1036.67 1037.84 1038.79 1039.62 1041.26 1043.27 1043.82 1043.03 1039.18 1037.43 1037.28 1037.64 1037.97 1036.78 1036.21
1010.83 1011.55 1012.50 1013.24 1014.16 1014.97 1015.96 1016.50 1017.01 1017.09 1017.19 1017.89 1019.29 1019.57 1019.81 1020.69 1021.35 1021.57 1023.38 1024.05 1025.01 1026.16 1027.26 1028.15 1028.82 1029.20 1029.74 1030.51 1031.72 1033.34 1034.11 1034.83 1036.59 1037.74 1038.85 1039.91 1040.62 1041.91 1043.67 1042.21 1039.23 1036.06 1036.19 1036.85 1037.14 1036.31 1034.09
1010.18 1010.63 1011.90 1012.91 1013.76 1014.84 1015.74 1016.26 1016.84 1017.15 1017.28 1017.83 1019.60 1019.88 1019.86 1020.84 1022.24 1022.54 1023.23 1023.98 1024.60 1025.75 1027.03 1028.25 1029.30 1029.86 1030.07 1030.75 1031.79 1032.72 1033.57 1034.35 1035.25 1036.32 1037.87 1039.34 1040.74 1041.29 1041.65 1040.71 1037.58 1035.39 1036.37 1037.48 1037.39 1034.51 1033.01
1009.29 1010.03 1011.11 1012.51 1013.66 1014.71 1015.51 1016.10 1016.89 1017.18 1017.39 1017.73 1019.73 1019.86 1019.69 1021.30 1023.25 1023.77 1023.84 1024.26 1024.98 1025.30 1026.26 1027.85 1029.16 1030.04 1030.52 1030.81 1031.17 1031.48 1032.55 1033.21 1033.85 1034.17 1035.20 1036.42 1038.54 1039.83 1040.36 1039.70 1037.10 1035.32 1037.24 1036.54 1033.52 1033.16 1033.20
1008.67 1009.97 1010.88 1012.27 1013.72 1014.48 1015.35 1016.18 1016.91 1017.15 1017.29 1017.92 1019.40 1019.90 1020.22 1021.53 1024.34 1024.80 1025.12 1025.20 1025.23 1025.13 1025.51 1026.79 1027.02 1027.29 1027.99 1029.17 1030.08 1030.86 1031.69 1032.91 1033.10 1033.80 1034.50 1035.27 1034.97 1035.88 1036.28 1034.92 1034.01 1033.90 1033.21 1033.16 1033.39 1033.04 1033.46
Wind_Speed
6 7 7 8 8 10 11 12 13 14 15 16 16 16 15 15 14 12 12 15 15 14 14 12 7 3 4 8 4 11 23 16 5 2 3 3 3 3 5 4 3 3 1 4 7 9 15
5 6 6 7 8 9 10 11 12 13 14 15 15 15 15 14 13 10 8 12 13 11 10 9 7 4 6 10 8 10 11 8 5 4 2 3 3 2 5 4 3 2 6 6 12 11 12
4 5 6 6 7 8 10 11 12 12 13 14 14 14 14 14 13 9 6 7 10 9 7 4 5 2 17 3 6 9 8 3 5 2 4 2 2 6 2 4 3 1 3 8 9 8 5
3 4 6 6 7 8 9 11 12 12 13 14 14 14 14 13 13 10 6 4 5 4 2 2 7 6 6 4 7 10 10 4 9 5 4 7 8 8 6 4 7 6 5 5 5 10 6
2 3 4 4 6 8 8 9 11 12 13 14 13 14 13 12 12 10 7 7 6 8 11 4 8 7 4 12 10 8 6 5 5 5 11 9 9 6 10 5 5 8 2 2 5 6 5
1 1 2 4 5 6 9 10 10 12 13 13 13 12 12 11 12 8 4 7 14 8 6 3 4 6 8 7 8 8 6 7 8 4 10 13 8 6 7 6 3 1 1 3 3 3 6
3 1 0 2 4 6 7 9 11 12 14 14 13 11 10 7 9 7 2 3 6 10 12 6 1 6 4 8 4 11 7 5 7 10 6 8 11 8 6 6 5 5 4 4 5 2 4
5 3 1 1 3 5 7 8 9 11 13 13 13 13 11 2 11 7 5 5 3 6 8 7 5 5 4 4 8 22 13 9 9 6 3 7 9 2 8 8 5 3 3 4 5 5 4
7 5 3 1 1 4 5 7 9 11 12 14 13 13 13 7 4 8 4 3 4 1 7 3 3 3 2 8 6 11 8 4 7 11 9 7 2 4 4 7 8 2 4 2 5 4 2
8 7 5 2 1 3 4 6 8 10 11 12 12 11 11 4 7 1 2 5 3 1 5 4 5 5 5 2 5 5 5 1 6 4 5 7 3 5 6 7 4 3 2 5 9 6 2
10 8 6 4 2 2 5 6 7 9 9 9 9 8 11 6 5 3 1 3 2 3 2 1 3 2 6 7 2 10 5 8 5 4 3 2 3 6 6 4 2 5 6 9 8 5 3
11 9 8 6 3 2 3 6 8 9 9 9 7 5 3 5 3 0 0 1 3 3 6 2 2 2 4 7 5 7 8 7 2 6 8 3 0 4 1 3 1 4 4 5 3 3 3
13 11 10 7 5 3 3 3 7 10 11 8 4 3 5 3 1 1 2 3 2 4 4 4 3 3 4 4 4 5 5 8 5 4 5 4 2 3 3 4 4 8 5 5 6 4 5
15 12 11 9 6 4 2 4 6 9 12 10 2 4 4 2 1 4 3 4 5 4 3 2 4 6 3 2 3 4 3 3 5 4 4 3 1 4 5 2 2 3 2 5 4 3 7
16 14 12 10 7 5 2 5 6 8 12 11 6 2 3 4 3 3 5 1 4 3 6 8 3 4 2 2 4 4 2 2 0 2 6 4 3 3 4 3 2 3 4 4 2 4 3
16 14 13 11 8 5 2 4 8 10 13 7 2 2 2 3 4 4 4 4 2 3 5 2 5 3 6 5 4 3 4 2 3 3 2 4 3 1 2 1 8 5 1 3 2 2 6
18 16 14 13 10 6 5 3 6 7 12 4 3 2 0 4 2 4 3 5 3 2 3 3 4 5 4 6 5 4 6 2 2 2 3 4 4 2 1 4 0 1 3 6 4 3 5
19 17 17 15 12 9 4 2 4 5 4 4 3 1 1 2 2 1 3 5 4 3 3 2 4 4 5 5 4 4 7 3 4 4 6 3 5 2 1 2 4 3 5 4 5 5 3
22 21 19 16 12 9 6 3 1 5 3 3 1 1 0 2 3 2 1 1 1 4 4 3 3 2 2 5 5 3 5 3 3 4 6 5 0 2 4 5 1 2 3 4 5 3 6
23 21 20 17 15 12 5 4 3 1 2 3 1 1 1 3 2 6 5 5 4 2 3 4 4 4 4 3 2 6 4 4 3 1 5 4 3 8 8 5 5 4 4 5 6 4 4
24 23 22 21 18 13 11 7 4 3 4 3 2 2 1 2 3 2 3 6 5 5 2 3 1 4 8 4 3 5 5 4 1 2 4 4 5 3 1 1 2 4 5 9 8 5 7
24 23 23 22 20 17 13 8 5 5 7 3 4 4 2 1 2 5 1 6 9 4 7 5 4 6 5 8 8 10 9 5 6 3 3 3 2 3 4 0 3 4 8 7 4 3 8
24 24 24 23 20 17 14 11 9 8 7 3 1 1 4 4 4 4 5 6 8 11 0 3 7 6 3 2 5 3 5 7 6 8 4 4 6 4 6 4 4 9 12 15 6 4 9
24 24 24 23 21 19 14 11 6 7 7 3 3 3 3 3 5 5 5 3 5 4 7 2 5 6 4 13 11 7 9 9 9 7 2 6 6 3 3 4 2 7 2 2 7 6 11
23 24 25 24 22 18 14 11 8 10 12 3 3 3 3 3 3 4 7 6 8 5 4 4 3 2 15 4 5 5 4 5 2 5 4 2 6 3 5 5 7 4 7 9 10 10 15
24 24 24 23 22 19 15 11 8 10 12 5 2 0 2 6 7 7 5 4 5 4 3 3 6 11 1 2 3 6 7 4 3 0 3 5 6 5 3 5 8 8 3 4 5 8 11
26 27 25 23 21 19 16 12 10 8 10 5 2 2 2 4 1 2 5 7 6 4 4 6 7 2 2 2 2 4 5 1 6 8 7 3 2 6 4 4 12 5 6 4 8 12 6
27 26 24 22 21 19 16 12 10 9 12 5 2 1 1 3 2 3 2 5 3 4 7 7 6 2 2 3 4 4 4 6 2 4 8 9 10 5 4 2 12 8 6 10 8 3 4
24 25 25 22 21 18 15 12 11 11 9 6 3 2 4 7 3 2 3 2 2 2 6 5 1 5 7 4 1 3 3 3 2 4 1 3 7 7 11 9 2 16 2 4 1 5 4
Wind_Direction
31 30 25 24 25 20 19 15 12 9 9 8 6 6 7 9 13 22 42 59 84 93 98 101 97 79 49 44 10 306 333 328 338 79 94 113 94 111 109 120 116 115 352 42 19 24 78
37 29 23 21 22 20 16 16 13 9 11 9 7 6 4 9 14 20 50 64 91 98 102 93 91 95 77 60 296 317 326 332 13 30 54 62 117 142 98 86 75 136 77 53 27 59 50
26 26 20 20 19 17 12 12 10 9 9 11 7 6 5 5 14 33 64 73 82 81 69 48 356 87 57 33 322 323 333 328 321 14 76 46 55 74 57 89 355 44 73 58 25 351 65
27 25 20 9 9 12 15 8 7 8 10 9 8 5 3 4 10 23 42 107 98 75 66 28 42 65 94 283 320 359 340 359 16 50 56 28 61 75 39 324 30 39 51 29 18 2 19
23 15 22 26 8 2 9 13 5 4 9 8 9 2 3 1 3 10 19 116 100 60 53 81 40 84 11 328 355 335 22 353 324 24 40 57 62 72 10 62 42 13 76 13 336 32 354
223 15 22 9 4 8 1 4 10 3 5 4 3 2 0 2 355 356 25 72 69 37 8 33 66 49 355 324 323 331 347 18 47 25 31 32 49 65 18 50 128 278 5 338 297 344 54
230 216 47 22 360 358 3 8 5 6 1 359 359 0 355 18 14 355 17 23 21 11 25 79 152 104 354 294 340 355 343 6 26 47 74 18 70 83 75 62 136 133 132 213 261 192 113
242 230 208 347 355 359 359 4 7 9 0 359 353 352 346 116 53 43 63 82 135 170 83 25 56 50 27 359 17 353 3 66 40 70 71 51 66 109 96 51 55 93 121 277 291 327 298
234 236 212 219 345 358 355 356 3 5 12 354 355 354 352 151 78 50 60 127 296 277 89 25 55 26 1 48 36 336 20 55 75 60 53 95 112 125 95 48 21 336 142 323 250 290 269
226 230 219 212 287 335 344 352 5 4 8 359 351 357 6 137 46 141 45 307 288 70 93 345 349 7 354 96 62 11 33 44 41 125 119 86 350 80 63 44 52 357 32 331 305 352 277
227 231 215 208 230 327 334 345 357 359 359 2 352 356 50 59 145 68 247 280 291 44 357 14 44 325 10 80 295 345 338 27 70 38 114 166 86 65 60 331 169 235 320 280 279 276 32
222 231 223 218 203 261 316 341 350 346 349 354 350 357 125 36 42 44 244 22 38 49 251 103 63 31 62 19 27 343 15 30 58 51 37 75 91 68 192 288 227 311 305 325 75 105 28
215 220 219 219 212 223 284 346 346 343 340 342 325 54 75 108 189 144 96 51 28 177 13 167 135 102 89 25 55 36 39 32 45 81 24 346 41 113 30 4 343 19 32 2 4 5 233
206 212 218 212 217 242 282 323 359 346 336 326 237 107 46 55 127 118 58 60 231 106 188 120 101 88 90 64 45 23 51 47 14 44 80 72 244 26 349 100 263 340 83 140 239 267 280
203 205 210 214 206 234 286 323 355 354 327 313 142 20 61 347 137 68 81 130 250 176 146 144 69 110 143 179 125 98 57 126 11 35 131 107 277 345 58 46 27 342 72 173 139 246 317
196 203 200 207 207 214 258 347 351 351 318 279 92 68 36 347 115 72 88 234 169 118 114 112 159 166 167 184 148 120 179 234 159 51 138 206 30 276 121 49 37 99 157 112 35 342 283
193 198 199 202 200 191 234 65 338 351 321 196 60 45 309 116 73 59 190 196 166 131 125 149 159 127 158 160 147 170 179 314 186 118 129 123 102 277 119 24 132 48 20 49 116 147 207
193 194 198 197 192 193 199 117 328 347 347 53 113 303 344 141 60 44 167 166 134 147 96 106 98 112 157 157 139 163 187 201 167 152 159 178 143 201 19 35 51 82 162 127 127 256 216
188 190 196 191 186 197 193 125 303 352 33 135 179 219 69 178 216 184 188 84 121 147 151 135 117 123 127 149 115 148 144 98 148 144 164 190 251 36 330 346 27 157 189 128 101 85 217
186 191 191 183 190 183 193 183 214 304 152 95 104 298 20 59 32 142 157 189 166 22 97 97 121 90 103 113 43 168 138 159 114 109 115 97 127 170 193 195 123 174 185 179 146 139 202
187 191 191 184 186 177 197 199 203 245 170 101 63 232 62 231 213 164 136 143 144 169 77 136 97 203 158 120 98 178 143 129 80 17 62 111 196 170 264 112 108 209 190 182 199 197 179
189 189 191 187 183 180 194 193 195 188 143 92 157 154 19 114 132 118 250 216 168 154 146 207 190 149 172 155 185 187 132 185 189 91 90 3 189 96 313 68 187 258 231 209 216 208 268
194 188 190 187 184 182 187 188 197 188 173 127 118 74 119 165 151 135 217 187 185 130 257 40 151 117 140 162 99 78 82 79 125 142 128 99 130 88 264 3 358 299 212 188 191 203 159
197 192 190 187 185 184 180 183 189 214 193 116 170 125 131 226 178 208 162 128 150 153 141 81 99 109 126 122 104 57 55 69 66 28 89 125 95 82 206 21 325 248 199 206 183 215 218
195 195 197 186 182 178 176 172 190 224 190 110 140 143 161 185 154 167 150 114 81 55 85 94 54 118 160 83 77 55 2 22 30 46 37 63 114 94 143 196 290 323 201 172 167 260 201
198 194 193 183 181 170 171 165 197 230 171 94 94 16 134 125 224 110 133 170 144 120 77 83 33 136 52 96 109 164 201 189 238 128 91 73 73 115 123 160 224 238 214 175 123 289 193
201 190 189 184 172 162 165 168 180 168 155 106 101 304 124 127 197 136 165 173 135 116 105 126 146 196 26 121 129 177 230 155 186 182 169 139 64 192 190 231 286 216 153 137 96 239 166
204 186 173 172 163 163 161 162 185 177 138 98 100 341 150 101 53 4 16 135 114 152 149 148 103 217 122 179 179 201 170 209 160 171 177 167 158 189 92 117 275 144 78 169 217 353 139
178 165 161 161 158 158 155 168 158 150 154 129 112 75 57 73 104 33 67 40 358 24 125 183 129 150 163 136 206 109 175 150 168 244 346 228 191 177 188 212 237 206 128 269 151 154 215